Location: ??????
(38.5153°N, 23.0340°E)
Time: 13:16:57
(UTC+00:00)

GEOS 3 Rocket - Pass Details

Date: 13 December 2025
Orbit: 769 x 844 km, 115.0° (Epoch: 17 January)

Event Time Altitude Azimuth Distance (km) Brightness Sun altitude
Exits shadow 15:38:11 - 33° (NNE) 3,194 6.2 -6.2°
Reaches altitude 10° 15:39:59 10° 32° (NNE) 2,467 5.6 -6.5°
Maximum altitude 15:45:23 82° 307° (NW) 856 3.8 -7.5°
Drops below altitude 10° 15:50:44 10° 219° (SW) 2,449 7.2 -8.4°
Sets 15:53:02 0° 219° (SW) 3,375 8.0 -8.8°
